CW5430 Weather Reports


time (UTC)temp
C
wind
direction
speed
KPH
gust
KPH
rain 1hr
cm
rain 24hr
cm
rain mn
cm
humidity
%
barometer
mb
20260503174008 13 305 3.2 14.5 0.00 0.00 0.00 38 1013.4
20260503173511 13 260 1.6 16.1 0.00 0.00 0.00 37 1013.3
20260503173035 13 304 3.2 16.1 0.00 0.00 0.00 38 1013.4
20260503172505 13 248 3.2 14.5 0.00 0.00 0.00 36 1013.4
20260503172007 13 296 3.2 8.0 0.00 0.00 0.00 40 1013.4
20260503171515 13 311 1.6 11.3 0.00 0.00 0.00 40 1013.4
20260503171007 13 294 3.2 12.9 0.00 0.00 0.00 41 1013.5
20260503170507 12 284 4.8 12.9 0.00 0.00 0.00 42 1013.6
20260503151006 11 327 4.8 8.0 0.00 0.00 0.00 46 1014.2
20260503150510 11 351 3.2 8.0 0.00 0.00 0.00 47 1014.1
20260503131010 10 13 4.8 11.3 0.00 0.00 0.00 56 1014.0
20260503130508 10 34 1.6 6.4 0.00 0.00 0.00 58 1013.9
20260503110507 6 306 1.6 6.4 0.00 0.00 0.00 64 1013.2
20260503090511 4 267 0.0 3.2 0.00 0.00 0.00 75 1011.6
20260503081518 4 277 0.0 0.0 0.00 0.00 0.00 78 1011.3
20260503081008 4 277 0.0 0.0 0.00 0.00 0.00 77 1011.2
20260503080508 4 277 0.0 0.0 0.00 0.00 0.00 76 1011.1
20260503072508 5 277 0.0 0.0 0.00 0.00 0.00 72 1011.0
20260503072014 5 277 0.0 0.0 0.00 0.00 0.00 72 1011.1
20260503071521 5 277 0.0 0.0 0.00 0.00 0.00 72 1011.0
20260503071005 6 277 0.0 0.0 0.00 0.00 0.00 71 1011.0
20260503070507 6 277 0.0 0.0 0.00 0.00 0.00 71 1011.0
20260503055009 6 278 0.0 3.2 0.00 0.00 0.00 67 1011.3
20260503054524 6 278 0.0 3.2 0.00 0.00 0.00 66 1011.3
20260503054011 6 294 0.0 3.2 0.00 0.00 0.00 66 1011.4
20260503053507 7 296 0.0 3.2 0.00 0.00 0.00 66 1011.4
20260503053035 7 296 0.0 3.2 0.00 0.00 0.00 66 1011.5
20260503052508 7 296 0.0 3.2 0.00 0.00 0.00 65 1011.5
20260503052006 7 296 0.0 3.2 0.00 0.00 0.00 66 1011.6
20260503051509 7 296 0.0 3.2 0.00 0.00 0.00 65 1011.7
20260503051016 7 296 0.0 3.2 0.00 0.00 0.00 65 1011.6
20260503050505 7 293 0.0 3.2 0.00 0.00 0.00 64 1011.7
20260503050014 7 293 0.0 3.2 0.00 0.00 0.00 63 1011.8
20260503045510 7 293 0.0 3.2 0.00 0.00 0.00 62 1011.8
20260503045010 7 293 0.0 3.2 0.00 0.00 0.00 62 1011.8
20260503044536 7 293 0.0 3.2 0.00 0.00 0.00 62 1011.8
20260503044006 8 293 0.0 3.2 0.00 0.00 0.00 61 1011.9
20260503043507 8 293 0.0 3.2 0.00 0.00 0.00 60 1011.9
20260503043022 8 293 0.0 3.2 0.00 0.00 0.00 60 1012.0
20260503042509 8 293 0.0 3.2 0.00 0.00 0.00 60 1012.0
20260503042011 8 293 0.0 3.2 0.00 0.00 0.00 59 1012.1
20260503041524 8 293 0.0 3.2 0.00 0.00 0.00 58 1012.1
20260503041010 8 293 0.0 3.2 0.00 0.00 0.00 59 1012.0
20260503040513 8 293 0.0 3.2 0.00 0.00 0.00 57 1012.0
20260503040016 8 283 0.0 3.2 0.00 0.00 0.00 57 1012.1
20260503035507 8 263 0.0 3.2 0.00 0.00 0.00 58 1012.1
20260503035007 8 277 0.0 3.2 0.00 0.00 0.00 57 1012.2
20260503034515 8 273 0.0 3.2 0.00 0.00 0.00 58 1012.1
20260503034010 8 272 0.0 3.2 0.00 0.00 0.00 57 1012.0
20260503033507 8 312 0.0 1.6 0.00 0.00 0.00 58 1012.0
20260503033021 8 312 0.0 3.2 0.00 0.00 0.00 56 1012.0
20260503032509 8 331 0.0 3.2 0.00 0.00 0.00 56 1012.0
20260503032017 8 335 0.0 3.2 0.00 0.00 0.00 56 1011.8
20260503031523 9 338 0.0 3.2 0.00 0.00 0.00 55 1011.9
20260503031008 9 338 0.0 3.2 0.00 0.00 0.00 55 1011.9
20260503030508 9 338 0.0 3.2 0.00 0.00 0.00 54 1011.9
20260503030032 9 296 0.0 6.4 0.00 0.00 0.00 54 1011.9
20260503025505 9 285 1.6 6.4 0.00 0.00 0.00 53 1011.9
20260503025003 9 300 0.0 3.2 0.00 0.00 0.00 55 1011.9
20260503024511 9 300 0.0 3.2 0.00 0.00 0.00 54 1012.0
20260503024007 9 301 0.0 3.2 0.00 0.00 0.00 54 1012.0
20260503023509 9 309 0.0 3.2 0.00 0.00 0.00 54 1012.1
20260503023019 10 309 0.0 3.2 0.00 0.00 0.00 54 1012.2
20260503022508 10 263 0.0 3.2 0.00 0.00 0.00 54 1012.2
20260503022013 10 263 0.0 3.2 0.00 0.00 0.00 52 1012.1
20260503021524 10 261 0.0 3.2 0.00 0.00 0.00 52 1012.1
20260503021011 10 226 0.0 3.2 0.00 0.00 0.00 52 1012.2
20260503020510 10 240 0.0 3.2 0.00 0.00 0.00 51 1012.0
20260503020034 10 238 0.0 3.2 0.00 0.00 0.00 52 1012.1
20260503015512 10 277 0.0 3.2 0.00 0.00 0.00 51 1012.0
20260503015017 10 277 0.0 3.2 0.00 0.00 0.00 54 1012.0
20260503014512 10 277 0.0 3.2 0.00 0.00 0.00 52 1012.0
20260503014004 10 287 0.0 3.2 0.00 0.00 0.00 51 1012.0
20260503013508 10 287 0.0 3.2 0.00 0.00 0.00 54 1011.9
20260503013018 10 287 0.0 3.2 0.00 0.00 0.00 51 1011.9
20260503012507 10 287 0.0 3.2 0.00 0.00 0.00 49 1011.9
20260503012010 10 287 0.0 3.2 0.00 0.00 0.00 51 1011.9
20260503011521 10 287 0.0 3.2 0.00 0.00 0.00 51 1011.8
20260503011008 11 287 0.0 3.2 0.00 0.00 0.00 51 1011.7
20260503010510 11 286 0.0 3.2 0.00 0.00 0.00 49 1011.9
20260503010025 11 286 0.0 3.2 0.00 0.00 0.00 50 1011.7
20260503005510 11 286 0.0 3.2 0.00 0.00 0.00 50 1011.6
20260503005013 11 286 0.0 3.2 0.00 0.00 0.00 49 1011.5
20260503004526 11 297 0.0 3.2 0.00 0.00 0.00 49 1011.6
20260503004010 11 297 0.0 3.2 0.00 0.00 0.00 50 1011.4
20260503003513 11 297 0.0 3.2 0.00 0.00 0.00 47 1011.3
20260503003023 11 297 0.0 3.2 0.00 0.00 0.00 48 1011.2
20260503002506 11 300 0.0 3.2 0.00 0.00 0.00 47 1011.2
20260503002009 11 314 0.0 3.2 0.00 0.00 0.00 50 1011.1
20260503001520 11 314 0.0 0.0 0.00 0.00 0.00 52 1011.1
20260503001010 11 314 0.0 0.0 0.00 0.00 0.00 49 1011.1
20260503000509 11 314 0.0 0.0 0.00 0.00 0.00 48 1011.2
20260503000029 11 314 0.0 0.0 0.00 0.00 0.00 47 1011.1
20260502235507 11 314 0.0 0.0 0.00 0.00 0.00 51 1011.1
20260502235009 12 314 0.0 3.2 0.00 0.00 0.00 47 1011.1
20260502234546 12 314 0.0 3.2 0.00 0.00 0.00 46 1011.0
20260502234012 12 311 0.0 3.2 0.00 0.00 0.00 45 1011.0
20260502233512 12 306 0.0 3.2 0.00 0.00 0.00 45 1011.0
20260502233026 12 306 0.0 3.2 0.00 0.00 0.00 43 1010.9
20260502232510 12 310 0.0 3.2 0.00 0.00 0.00 44 1010.8
20260502232007 12 310 0.0 3.2 0.00 0.00 0.00 43 1010.9
20260502231513 12 11 0.0 3.2 0.00 0.00 0.00 43 1010.9
20260502231011 12 286 1.6 3.2 0.00 0.00 0.00 43 1010.9
20260502230507 12 329 0.0 4.8 0.00 0.00 0.00 45 1011.0
20260502230022 12 325 0.0 4.8 0.00 0.00 0.00 44 1011.0
20260502225508 12 350 0.0 4.8 0.00 0.00 0.00 43 1011.1
20260502225008 13 329 0.0 3.2 0.00 0.00 0.00 43 1011.0
20260502224525 13 298 1.6 3.2 0.00 0.00 0.00 44 1010.9
20260502224017 13 345 0.0 3.2 0.00 0.00 0.00 44 1011.0
20260502223508 13 345 0.0 3.2 0.00 0.00 0.00 42 1010.8
20260502223036 13 324 0.0 9.7 0.00 0.00 0.00 42 1010.8
20260502222511 13 260 1.6 9.7 0.00 0.00 0.00 40 1010.8
20260502222012 14 17 1.6 4.8 0.00 0.00 0.00 42 1010.7
20260502221527 14 352 1.6 4.8 0.00 0.00 0.00 37 1010.7
20260502221010 15 321 1.6 3.2 0.00 0.00 0.00 37 1010.8
20260502220508 15 320 0.0 6.4 0.00 0.00 0.00 40 1010.7
20260502220018 15 305 1.6 6.4 0.00 0.00 0.00 39 1010.7
20260502215507 15 315 3.2 6.4 0.00 0.00 0.00 37 1010.6
20260502215008 15 341 0.0 3.2 0.00 0.00 0.00 41 1010.7
20260502214524 15 348 1.6 4.8 0.00 0.00 0.00 40 1010.7
20260502214014 15 211 0.0 4.8 0.00 0.00 0.00 45 1010.7
20260502213507 15 360 1.6 4.8 0.00 0.00 0.00 41 1010.7
20260502213026 15 340 0.0 8.0 0.00 0.00 0.00 40 1010.7
20260502212507 15 9 1.6 8.0 0.00 0.00 0.00 42 1010.7
20260502212008 15 44 3.2 8.0 0.00 0.00 0.00 41 1010.5
20260502211532 16 347 0.0 8.0 0.00 0.00 0.00 40 1010.5
20260502211010 16 352 1.6 8.0 0.00 0.00 0.00 37 1010.4
20260502210513 16 46 1.6 4.8 0.00 0.00 0.00 36 1010.3
20260502210014 16 192 1.6 4.8 0.00 0.00 0.00 39 1010.3
20260502205513 16 293 1.6 4.8 0.00 0.00 0.00 41 1010.3
20260502205005 16 244 1.6 6.4 0.00 0.00 0.00 39 1010.3
20260502204535 16 345 0.0 6.4 0.00 0.00 0.00 38 1010.2
20260502204008 16 192 1.6 6.4 0.00 0.00 0.00 38 1010.3
20260502203510 16 19 1.6 4.8 0.00 0.00 0.00 39 1010.3
20260502203026 16 352 1.6 4.8 0.00 0.00 0.00 41 1010.3
20260502202507 16 352 1.6 4.8 0.00 0.00 0.00 42 1010.5
20260502202008 15 360 1.6 4.8 0.00 0.00 0.00 38 1010.5
20260502201526 15 33 1.6 3.2 0.00 0.00 0.00 44 1010.6
20260502201010 15 360 1.6 3.2 0.00 0.00 0.00 44 1010.6
20260502200511 15 313 0.0 3.2 0.00 0.00 0.00 43 1010.7
20260502200027 15 30 0.0 8.0 0.00 0.00 0.00 42 1010.7
20260502195509 15 350 0.0 8.0 0.00 0.00 0.00 40 1010.7
20260502195008 15 10 1.6 4.8 0.00 0.00 0.00 41 1010.8
20260502194526 15 287 1.6 4.8 0.00 0.00 0.00 41 1010.9
20260502194007 16 277 1.6 4.8 0.00 0.00 0.00 45 1011.0
20260502193513 16 347 1.6 4.8 0.00 0.00 0.00 44 1011.0
20260502193024 16 20 1.6 4.8 0.00 0.00 0.00 40 1011.1
20260502192515 16 348 1.6 8.0 0.00 0.00 0.00 42 1011.1
20260502192010 16 19 1.6 8.0 0.00 0.00 0.00 42 1011.2
20260502191523 16 360 1.6 6.4 0.00 0.00 0.00 39 1011.3
20260502191010 16 14 1.6 9.7 0.00 0.00 0.00 40 1011.3
20260502190510 16 9 1.6 9.7 0.00 0.00 0.00 42 1011.5
20260502190028 16 19 3.2 6.4 0.00 0.00 0.00 40 1011.4
20260502185509 16 94 1.6 4.8 0.00 0.00 0.00 44 1011.5
20260502185010 15 311 0.0 4.8 0.00 0.00 0.00 43 1011.7
20260502184527 16 51 1.6 4.8 0.00 0.00 0.00 45 1011.6
20260502184006 15 292 1.6 4.8 0.00 0.00 0.00 44 1011.6
20260502183507 15 9 0.0 4.8 0.00 0.00 0.00 44 1011.7
20260502183020 15 65 1.6 6.4 0.00 0.00 0.00 44 1011.8
20260502182509 15 44 3.2 6.4 0.00 0.00 0.00 41 1011.8
20260502182012 15 21 1.6 6.4 0.00 0.00 0.00 44 1011.8
20260502181526 14 351 1.6 6.4 0.00 0.00 0.00 44 1011.9
20260502181009 15 360 1.6 4.8 0.00 0.00 0.00 44 1011.8
20260502180508 15 209 0.0 4.8 0.00 0.00 0.00 42 1011.8